Hors Challenge

Le Trail Des Fantômes - La Roche-En-Ardenne (16.00 km)

dimanche 11 août 2019

Vous pouvez trouver Le classement original sur : https://my2.raceresult.com
 
LE TRAIL DES FANTÔMES - LA ROCHE-EN-ARDENNE
DISTANCE : 16.00 km
dimanche 11 août 2019
 
Place dos NOM Catégorie Pl/cat temps temps/km Vitesse
01:00:00              
1 1578 KOEN VAN DIJK SH 1 1:14:21 04:39 12.91
2 1522 MICHAEL BALIS SH 2 1:17:36 04:51 12.37
3 1922 BERNARD MALMEDY SH 3 1:22:32 05:10 11.63
4 829 DENNIS KNEEPKENS SH 4 1:23:14 05:12 11.53
5 827 ROB DERKS SH 5 1:23:20 05:13 11.52
6 740 JORN VAN DAMME SH 6 1:23:34 05:13 11.49
7 1063 KOEN OPBROEK SH 7 1:24:47 05:18 11.32
8 976 RAF COOLEN SH 8 1:25:25 05:20 11.24
9 3488 FRANCK SURAHY SH 9 1:25:47 05:22 11.19
10 143 TIM BUYSSE SH 10 1:26:35 05:25 11.09
11 493 LUNA DE BRUIN JF 1 1:29:04 05:34 10.78
12 813 RAMON THIJSSEN SH 11 1:29:48 05:37 10.69
13 1970 MARJOLEIN TRUYERS SD 1 1:29:57 05:37 10.67
14 1969 MARC TRUYERS V3 1 1:30:09 05:38 10.65
15 1521 LEVI VAN LIMBERGEN SH 12 1:31:41 05:44 10.47
16 1417 MICHAEL DEGELAEN SH 13 1:32:09 05:46 10.42
17 3556 JEAN-SEB CLAES V1 1 1:32:27 05:47 10.38
18 821 KOEN HERMANS SH 14 1:32:47 05:48 10.35
19 1282 JIMMY BROOS SH 15 1:34:00 05:53 10.21
20 1663 NICOLAS KEYGNAERT V1 2 1:34:06 05:53 10.20
21 1937 PIERRE-EMMANUEL KINA SH 16 1:34:18 05:54 10.18
22 341 MATTI BUYSSE SH 17 1:34:40 05:55 10.14
23 1845 PAULINA TWORNICKI SD 2 1:35:10 05:57 10.09
24 1848 JOS GABRIELSE V2 1 1:35:23 05:58 10.06
25 3276 CHRISTÈL VAN DER HAELE A3 1 1:35:30 05:58 10.05
26 3274 RICH CALAME SH 18 1:35:31 05:58 10.05
27 1300 ANDRÉ ZUCKA V2 2 1:35:35 05:58 10.04
28 1411 PETER VERDONK V1 3 1:36:09 06:01 9.98
29 3435 NICOLAS THIRY SH 19 1:37:01 06:04 9.90
30 1628 ANAÏS PIROT SD 3 1:37:14 06:05 9.87
31 1634 CASEY WELLMAN SH 20 1:37:16 06:05 9.87
32 814 ELLEN BEUMERS SD 4 1:37:44 06:07 9.82
33 3522 BRUNO DUFAYS SH 21 1:37:59 06:07 9.80
34 1549 MIRTHE OVERKAMP SD 5 1:38:27 06:09 9.75
35 1144 HANS DE GRAAF V2 3 1:39:02 06:11 9.69
36 3369 ROB VENNIX SH 22 1:39:10 06:12 9.68
37 1515 GEORGY SINELSHCHIKOV V2 4 1:39:14 06:12 9.67
38 1295 ANA RITA FERREIRA SD 6 1:39:22 06:13 9.66
39 176 IVO DE HAAN SH 23 1:39:51 06:14 9.61
40 1474 PATRYK ANDRUSZYSZYN SH 24 1:40:19 06:16 9.57
41 823 RALPH THIJSSEN SH 25 1:40:23 06:16 9.56
42 1914 JONAS VANHOVE SH 26 1:40:27 06:17 9.56
43 1664 NICOLAS BRUNÉE SH 27 0:0.07 00:00 822857.14
44 3563 BART NEEFS SH 28 1:40:55 06:18 9.51
45 3571 MARIE KLEIN SD 7 1:41:56 06:22 9.42
46 3561 TEIJE BAARD JH 1 1:42:34 06:25 9.36
47 428 DRIES BUSSELOT SH 29 1:42:40 06:25 9.35
48 3273 JIMMY VANGANSEWINKEL V1 4 1:42:49 06:26 9.34
49 3480 NATHALIE KEERIS SD 8 1:42:52 06:26 9.33
50 1514 NATALIA FOKINA A1 1 1:43:01 06:26 9.32
51 88 ANDY LAUWERIER SH 30 1:43:07 06:27 9.31
52 3584 HENK LOUS V3 2 1:43:29 06:28 9.28
53 1473 PATRICK VAN CAPPELLEN V2 5 1:43:30 06:28 9.28
54 1362 RUNE VERHEIJDEN XXX   1:43:32 06:28 9.27
55 1132 OLIVIER DHAESE V1 5 1:44:22 06:31 9.20
56 164 ANNELIE WEEDAGE A1 2 1:44:26 06:32 9.19
57 946 MICHAEL BEIRINCKX SH 31 1:44:32 06:32 9.18
58 1259 EDOUARD DESMARETS SH 32 1:44:43 06:33 9.17
59 1320 TRUNG KIEN VU V1 6 1:44:47 06:33 9.16
60 1753 ELLY STORNEBRINK SD 9 1:44:58 06:34 9.15
61 1614 AUDREY CATHELAIN SD 10 1:45:09 06:34 9.13
62 3529 VALENTIN LAVAL SH 33 1:45:40 06:36 9.09
63 3528 JEAN-MARC CABAY V2 6 1:45:40 06:36 9.09
64 3559 NICOLAS BRUSKIN SH 34 1:45:49 06:37 9.07
65 1746 DAVID BRESART SH 35 1:46:07 06:38 9.05
66 1671 PASCAL KUSTERMANS V1 7 1:46:34 06:40 9.01
67 1642 MUSTAFA BEDDEK V1 8 1:46:50 06:41 8.99
68 1747 MARC STEENSELS V2 7 1:47:21 06:43 8.94
69 663 ANNELIES BREINE SD 11 1:48:01 06:45 8.89
70 662 NICK THIJS SH 36 1:48:01 06:45 8.89
71 1453 TIFFANY VAN BOST A1 3 1:48:26 06:47 8.85
72 1182 JEROEN GEBOERS SH 37 1:48:43 06:48 8.83
73 44 JOHN HEBING V2 8 1:49:15 06:50 8.79
74 3398 PHILIPPE SCHROLL V1 9 1:49:31 06:51 8.77
75 1602 KRISTIEN NELEN A1 4 1:50:24 06:54 8.70
76 1902 WIM VANDERAERDEN V1 10 1:51:01 06:56 8.65
77 1830 NICOLAS KAMINSKE SH 38 1:51:02 06:56 8.65
78 1895 DENIS BOZ SH 39 1:51:04 06:57 8.64
79 536 JASPER BOUTTE SH 40 1:51:04 06:57 8.64
80 3380 FRANK DE WILDE V2 9 1:51:22 06:58 8.62
81 77 JERRY KOORMAN V1 11 1:51:49 06:59 8.59
82 900 BRIAN SCHEPERS SH 41 1:51:56 07:00 8.58
83 3481 TOMAS NEYRINCK SH 42 1:52:09 07:01 8.56
84 650 RONALD PRINS V1 12 1:52:25 07:02 8.54
85 1086 MICHAËL VANNESTE SH 43 1:52:35 07:02 8.53
86 1873 CEDRIC SCHALEBROODT V1 13 1:53:19 07:05 8.47
87 953 JO PYL SH 44 1:53:20 07:05 8.47
88 1812 XAVIER MORDANT V1 14 1:53:31 07:06 8.46
89 1003 J.P. HOLZMANN V1 15 1:54:03 07:08 8.42
90 3463 KRIS VULSTEKE V2 10 1:54:48 07:10 8.36
91 3375 SANDER BAARD V1 16 1:57:18 07:20 8.18
92 3565 HARRY JONKER V2 11 1:58:04 07:23 8.13
93 889 GEERT-JAN VERDONK V2 12 1:59:01 07:26 8.07
94 574 DIDIER SERIEYS V2 13 1:59:07 07:27 8.06
95 403 HUGO SERIEYS SH 45 1:59:07 07:27 8.06
96 281 GERT GEUDENS SH 46 1:59:18 07:27 8.05
97 830 ACHIM SCHERRE V1 17 2:00:40 07:32 7.96
98 1024 ALEXANDRE CLAES V2 14 2:01:46 07:37 7.88
99 1542 ELLEN DE BOER SD 12 2:01:51 07:37 7.88
100 926 EDWIN BEEKMAN V1 18 2:02:29 07:39 7.84
101 1645 VERONIQUE VANHAUTE A1 5 2:02:43 07:40 7.82
102 3516 GEORGES MEIS SH 47 2:02:46 07:40 7.82
103 1807 MAAIKE KLING SD 13 2:03:14 07:42 7.79
104 1510 ROB OUD V2 15 2:03:34 07:43 7.77
105 3275 NICOLAS MAQUET SH 48 2:03:57 07:45 7.75
106 686 FRANS COLSON V1 19 2:04:04 07:45 7.74
107 1635 BASTIEN CHANOINE SH 49 2:04:45 07:48 7.70
108 1636 ANTOINE AMELOT SH 50 2:04:45 07:48 7.70
109 1579 ERICO FERNANDES SH 51 2:04:46 07:48 7.69
110 1768 ROBIN HEINZ SH 52 2:05:18 07:50 7.66
111 1656 LAURENT JALLET SH 53 2:05:20 07:50 7.66
112 3566 FANNY CREMONT A1 6 2:05:25 07:50 7.65
113 746 STIJN CORNELI SH 54 2:05:26 07:50 7.65
114 1653 JÉRÔME SZYMANSKI SH 55 2:05:30 07:51 7.65
115 3335 CÉCILE PONZELLINI A1 7 2:05:31 07:51 7.65
116 1547 LUC HOLTHOF V2 16 2:05:32 07:51 7.65
117 508 PETER VAN DER HAEGEN V1 20 2:06:17 07:54 7.60
118 1209 MELISSA VENEMAN SD 14 2:07:16 07:57 7.54
119 3438 CHARLÈNE CELLIER SD 15 2:07:16 07:57 7.54
120 561 JASPER ANDRIES SH 56 2:07:34 07:58 7.53
121 1963 MARCEL BEVERS V3 3 2:07:37 07:59 7.52
122 747 NIELS CORNELISSEN SH 57 2:07:58 08:00 7.50
123 109 KOEN DECADT SH 58 2:09:13 08:05 7.43
124 1503 PIETER LINDEMANS V2 17 2:09:31 08:06 7.41
125 463 JOERI DEBLAUWE SH 59 2:09:34 08:06 7.41
126 464 KAROLIEN DAUWE SD 16 2:09:35 08:06 7.41
127 1314 KEVIN GHISLAIN SH 60 2:09:42 08:06 7.40
128 1313 NICOLAS GHISLAIN SH 61 2:09:43 08:06 7.40
129 1111 GERTJAN KOK SH 62 2:10:14 08:08 7.37
130 629 JIMMY VAN ORSHOVEN V1 21 2:10:48 08:11 7.34
131 741 ANNELIES SEBRECHTS SD 17 2:10:54 08:11 7.33
132 1051 ELS MERCIER SD 18 2:11:05 08:12 7.32
133 254 BART MULLER V1 22 2:11:07 08:12 7.32
134 1864 JOAKIM MONMART SH 63 2:11:24 08:13 7.31
135 3558 BOUDEWIJN VAN AUTREVE V1 23 2:11:38 08:14 7.29
136 417 ROBBY VAN DER AA V1 24 2:12:16 08:16 7.26
137 79 DAVID GUEUDET SH 64 2:12:18 08:16 7.26
138 56 JULIE DOLLANGÈRE SD 19 2:12:19 08:16 7.26
139 705 SALLY SALEMINK V2 18 2:13:32 08:21 7.19
140 1435 RONNY VAN LOMMEL V1 25 2:14:06 08:23 7.16
141 537 SANDRO DELAERE SH 65 2:14:47 08:25 7.12
142 3370 NICKY VENNIX-NEUKIRCHEN SD 20 2:15:23 08:28 7.09
143 3491 VERONIQUE MORSIAU A1 8 2:15:34 08:28 7.08
144 3493 JEAN ADANT V1 26 2:15:34 08:28 7.08
145 1872 URIELLE GEINOZ SD 21 2:15:37 08:29 7.08
146 1591 KATERYNA NIKONENKO A1 9 2:15:50 08:29 7.07
147 1915 JEAN-MARC HAUFROID V1 27 2:15:56 08:30 7.06
148 115 HILDE GEURTS A1 10 2:16:18 08:31 7.04
149 3560 NATHALIE FERNANDEZ A1 11 2:18:29 08:39 6.93
150 1700 LIONEL CATILINA SH 66 2:18:54 08:41 6.91
151 1114 SUSANNE HOMMEN A1 12 2:18:54 08:41 6.91
152 1699 SAMUEL LAMBERT SH 67 2:18:55 08:41 6.91
153 1243 FEMKE DE KONING SD 22 2:19:02 08:41 6.90
154 1049 CAROLINE DELIT A1 13 2:19:18 08:42 6.89
155 113 TAMARA WABEKE SD 23 2:19:22 08:43 6.89
156 1352 ALAIN DEVINCENZO V2 19 2:19:30 08:43 6.88
157 1374 BARRY JOOSSEN SH 68 2:19:48 08:44 6.87
158 1048 MAGALI LECOINTRE SD 24 2:19:48 08:44 6.87
159 1375 ALBERT DE BOER SH 69 2:19:49 08:44 6.87
160 958 MIRJAM BOOMSMA A1 14 2:20:08 08:45 6.85
161 494 R. KOOPMANS SH 70 2:20:18 08:46 6.84
162 510 FRANK BROUNS SH 71 2:20:18 08:46 6.84
163 500 DENNIS BORGANS SH 72 2:20:26 08:47 6.84
164 498 TIM HACKING SH 73 2:20:29 08:47 6.83
165 1721 ALESSANDRO VOCALE SH 74 02:20:42 08:48 6.82
166 1072 GUY DE GREEF V3 4 02:21:10 08:49 6.80
167 1720 ADELINE DENIS SD 25 02:21:49 08:52 6.77
168 1853 DEBBIE DUIMEL SD 26 02:23:50 08:59 6.67
169 1299 NORA ZUCKA SD 27 02:23:52 09:00 6.67
170 1378 ERWIN VAN DE BEEK V1 28 02:24:21 09:01 6.65
171 3389 VINCENT CLAES SH 75 02:24:41 09:03 6.64
172 1412 LISETTE CORNELISSEN A1 15 02:25:04 09:04 6.62
173 825 JULIA BERGMANS SD 28 02:25:04 09:04 6.62
174 1975 TOMAS VAN DE VIJVER V1 29 02:25:52 09:07 6.58
175 521 STEFFI VAN LEEUWEN SD 29 02:26:24 09:09 6.56
176 3527 FRANCE CHARLIER A1 16 02:26:50 09:11 6.54
177 864 BRIGITTE LAGENDIJK SD 30 02:26:53 09:11 6.54
178 863 JESPER LAGENDIJK SH 76 02:26:53 09:11 6.54
179 3462 PAUL REUSE V2 20 02:28:45 09:18 6.45
180 585 FRANCÉ VAN DER POL SD 31 02:32:01 09:30 6.32
181 82 JEROEN VAN SCHAGEN V1 30 02:32:02 09:30 6.31
182 81 JUDITH VAN SCHAGEN SD 32 02:32:03 09:30 6.31
183 1044 GEERT BUYSE V2 21 02:34:03 09:38 6.23
184 338 MONIQUE BUSTER A1 17 02:34:05 09:38 6.23
185 337 PAUL DE RUIJG V1 31 02:34:06 09:38 6.23
186 1946 INES VANDENDORPE SD 33 02:35:34 09:43 6.17
187 1945 STIJN VAN LANGENHOVEN SH 77 02:35:58 09:45 6.16
188 1680 LAURENCE MAQUET SD 34 02:36:07 09:45 6.15
189 478 TIJMEN FONGERS SH 78 02:36:36 09:47 6.13
190 1539 WAI-YIN TAM A1 18 02:37:53 09:52 6.08
191 1538 SACHA HAMELEERS A1 19 02:37:55 09:52 6.08
192 32 SYLVIE TRUYENS SD 35 02:38:14 09:53 6.07
193 3345 LOURENS SCHOUTTETENS V1 32 02:38:17 09:54 6.07
194 738 WILLIAM PLOEG SH 79 02:45:30 10:21 5.80
195 737 NONKE HOPMAN SD 36 02:45:30 10:21 5.80
196 288 ELIZABETH VAN OLPHEN A1 20 02:45:57 10:22 5.78
197 141 ANDRÉ DE GROOT V2 22 02:46:57 10:26 5.75
198 140 ANNELIES HEIJMANS SD 37 02:46:58 10:26 5.75
199 1765 PHILIPPE ROEVROS V1 33 02:47:40 10:29 5.73
200 787 CORENTIN LABRUYÈRE SH 80 02:47:41 10:29 5.73
201 297 ILSE MESTDAGH A1 21 02:47:53 10:30 5.72
202 1456 TONY VAN WEERS V2 23 02:53:38 10:51 5.53
203 397 APORN RODKHANMUANG A1 22 02:53:39 10:51 5.53
204 1457 ELIS DA SILVA A2 1 02:53:39 10:51 5.53
205 423 MIRIAM LAMMERS A2 2 02:53:39 10:51 5.53
206 393 MARLIES WEIJERS SD 38 03:13:52 12:07 4.95
207 1396 HUGO VAN DER HORST V2 24 03:18:49 12:26 4.83
208 1452 JOANNE VAN DRUNEN A1 23 03:18:49 12:26 4.83
209 431 MONIQUE COPPEJANS A2 3 03:20:37 12:32 4.79